Find OneWeb SL0208

NORAD ID: 48243 Int'l Des: 2021-031 Owner: ONEWEBN Country: UK Constellation: oneweb operational
LEOCIRCULARPOLARONEWEB_TYPE

現在のビュー

3D地球を読み込み中...

OneWeb SL0208について

説明を読み込み中...

次回通過

Passes for default location (London). Set your location on the main map for personalized predictions.

高度履歴

Loading altitude history...

軌道要素

1 48243U 21031AK 26150.88122587 -.00000243 00000-0 -68906-3 0 9996
2 48243 87.8950 293.1558 0001610 107.4710 252.6596 13.14502479246037
Epoch: May 30, 2026 • Age: 16 hours

現在のステータス

高度 1225.7 km
速度 7.24 km/s
衛星直下点 -48.39°S, 158.58°W
打ち上げ日 Apr 25, 2021
運用期間 5 years
タイプ internet

技術仕様

分類 Payload
質量 148.00 kg
乾燥質量 140.00 kg
総質量 148.00 kg
長さ 1.30 m
直径 1.00 m
スパン 5.00 m
形状 Trapezoid+2 pan
製造者 ONEWUS
バスタイプ ARROW
フェーズステータス In Orbit
所有者/国 ONEWEBN/UK

Most Searched